GSAT0203 (GALILEO 7) (40544 NORAD) Tracking and Keplerian Element Data

This shows tracking and keplerian element data for the satellite.

Feedback or suggestion? Click here.




ElementValue
Catalog40544
NameGSAT0203 (GALILEO 7)
Epoch Orbit3978
Epoch Day268.48274348
Epoch Year2021
RAAN28.6235
Inclination56.6834
Eccentricity0.0003439
Argument of Perigee220.0603
Mean Anonmoly139.9149
Mean Motion1.70475167
Decay Rate-8.5E-07
L11 40544U 15017A 21268.48274348 -.00000085 00000-0 00000-0 0 9994
L22 40544 56.6834 28.6235 0003439 220.0603 139.9149 1.70475167 39780

Live tracking and technical data element details for GSAT0203 (GALILEO 7) (NORAD 40544). GSAT0203 (GALILEO 7) can be tracked NOW for your location showing map with azimuth and elevation plus other details from your city location.

Track the satellite on the map from your city or location and see movement details for azimuth, elevation, latitude, longitude, range, height, and movement on the map or in text.







IsCatalogInMostPopularTable: catalog: 40544, numindb: 540
Update: records affected: 1



GetName: 40544 GSAT0203 (GALILEO 7)

Hit Count: updated at: Mon, 27 Sep 2021 00:45:40 GMT